Time,TemperatureF,DewpointF,PressureIn,WindDirection,WindDirectionDegrees,WindSpeedMPH,WindSpeedGustMPH,Humidity,HourlyPrecipIn,Conditions,Clouds,dailyrainin,SoftwareType,DateUTC
2013-11-24 00:14:00,34.3,33.1,30.09,NNW,337,0.0,-999.0,95,-99.99,,,0.00,Acu-Link.com,2013-11-24 07:14:00,
2013-11-24 00:29:00,34.2,32.9,30.08,West,270,0.0,-999.0,95,-99.99,,,0.00,Acu-Link.com,2013-11-24 07:29:00,
2013-11-24 00:44:00,34.2,32.9,30.08,West,270,0.0,-999.0,95,-99.99,,,0.01,Acu-Link.com,2013-11-24 07:44:00,
2013-11-24 00:59:00,34.2,32.9,30.07,WSW,247,1.1,-999.0,95,-99.99,,,0.01,Acu-Link.com,2013-11-24 07:59:00,
2013-11-24 01:14:00,34.0,32.7,30.07,West,270,0.0,-999.0,95,-99.99,,,0.02,Acu-Link.com,2013-11-24 08:14:00,
2013-11-24 01:29:00,34.0,32.7,30.07,West,270,0.0,-999.0,95,-99.99,,,0.02,Acu-Link.com,2013-11-24 08:29:00,
2013-11-24 01:44:00,34.0,32.7,30.07,West,270,0.0,-999.0,95,-99.99,,,0.02,Acu-Link.com,2013-11-24 08:44:00,
2013-11-24 02:00:00,34.0,33.0,30.08,West,270,0.0,-999.0,96,-99.99,,,0.02,Acu-Link.com,2013-11-24 09:00:00,
2013-11-24 02:15:00,34.0,33.0,30.08,West,270,0.0,-999.0,96,-99.99,,,0.02,Acu-Link.com,2013-11-24 09:15:00,
2013-11-24 02:30:00,34.0,33.0,30.07,East,90,0.0,-999.0,96,-99.99,,,0.04,Acu-Link.com,2013-11-24 09:30:00,
2013-11-24 02:45:00,34.0,33.0,30.08,South,180,0.0,-999.0,96,-99.99,,,0.04,Acu-Link.com,2013-11-24 09:45:00,
2013-11-24 03:00:00,34.0,33.0,30.07,West,270,0.0,-999.0,96,-99.99,,,0.05,Acu-Link.com,2013-11-24 10:00:00,
2013-11-24 03:15:00,34.0,33.0,30.07,West,270,0.0,-999.0,96,-99.99,,,0.05,Acu-Link.com,2013-11-24 10:15:00,
2013-11-24 03:31:00,34.2,33.1,30.07,South,180,0.0,-999.0,96,-99.99,,,0.05,Acu-Link.com,2013-11-24 10:31:00,
2013-11-24 03:46:00,34.3,33.3,30.06,West,270,0.0,-999.0,96,-99.99,,,0.05,Acu-Link.com,2013-11-24 10:46:00,
2013-11-24 04:01:00,34.5,33.5,30.06,East,90,0.0,-999.0,96,-99.99,,,0.06,Acu-Link.com,2013-11-24 11:01:00,
2013-11-24 04:16:00,34.3,33.3,30.06,NW,315,0.0,-999.0,96,-99.99,,,0.06,Acu-Link.com,2013-11-24 11:16:00,
2013-11-24 04:31:00,34.2,33.1,30.06,ENE,67,0.0,-999.0,96,-99.99,,,0.06,Acu-Link.com,2013-11-24 11:31:00,
2013-11-24 04:47:00,34.0,33.0,30.07,ENE,67,0.0,-999.0,96,-99.99,,,0.07,Acu-Link.com,2013-11-24 11:47:00,
2013-11-24 05:02:00,34.0,33.0,30.06,NE,45,0.0,-999.0,96,-99.99,,,0.07,Acu-Link.com,2013-11-24 12:02:00,
2013-11-24 05:17:00,34.0,33.0,30.06,East,90,0.0,-999.0,96,-99.99,,,0.07,Acu-Link.com,2013-11-24 12:17:00,
2013-11-24 05:32:00,34.0,33.0,30.06,NW,315,0.0,-999.0,96,-99.99,,,0.07,Acu-Link.com,2013-11-24 12:32:00,
2013-11-24 05:47:00,34.0,33.0,30.05,West,270,0.0,-999.0,96,-99.99,,,0.07,Acu-Link.com,2013-11-24 12:47:00,
2013-11-24 06:03:00,33.8,32.8,30.06,South,180,0.0,-999.0,96,-99.99,,,0.08,Acu-Link.com,2013-11-24 13:03:00,
2013-11-24 06:18:00,33.8,32.8,30.05,WSW,247,0.0,-999.0,96,-99.99,,,0.08,Acu-Link.com,2013-11-24 13:18:00,
2013-11-24 06:33:00,33.8,32.8,30.05,ENE,67,0.0,-999.0,96,-99.99,,,0.08,Acu-Link.com,2013-11-24 13:33:00,
2013-11-24 06:48:00,34.0,33.0,30.05,WNW,292,0.0,-999.0,96,-99.99,,,0.08,Acu-Link.com,2013-11-24 13:48:00,
2013-11-24 07:03:00,34.0,33.0,30.06,ENE,67,0.0,-999.0,96,-99.99,,,0.09,Acu-Link.com,2013-11-24 14:03:00,
2013-11-24 07:18:00,34.2,33.1,30.06,South,180,0.0,-999.0,96,-99.99,,,0.09,Acu-Link.com,2013-11-24 14:18:00,
2013-11-24 07:34:00,34.2,33.1,30.06,NE,45,0.0,-999.0,96,-99.99,,,0.09,Acu-Link.com,2013-11-24 14:34:00,
2013-11-24 07:49:00,34.3,33.3,30.06,ENE,67,0.0,-999.0,96,-99.99,,,0.09,Acu-Link.com,2013-11-24 14:49:00,
2013-11-24 08:04:00,34.7,33.7,30.05,WNW,292,0.0,-999.0,96,-99.99,,,0.11,Acu-Link.com,2013-11-24 15:04:00,
2013-11-24 08:19:00,35.1,34.0,30.05,WNW,292,0.0,-999.0,96,-99.99,,,0.11,Acu-Link.com,2013-11-24 15:19:00,
2013-11-24 08:34:00,35.8,34.8,30.05,WNW,292,1.1,-999.0,96,-99.99,,,0.12,Acu-Link.com,2013-11-24 15:34:00,
2013-11-24 08:49:00,36.3,35.6,30.05,West,270,0.0,-999.0,97,-99.99,,,0.14,Acu-Link.com,2013-11-24 15:49:00,
2013-11-24 09:04:00,36.7,35.9,30.05,West,270,1.1,-999.0,97,-99.99,,,0.15,Acu-Link.com,2013-11-24 16:04:00,
2013-11-24 09:19:00,36.7,35.9,30.06,West,270,1.6,-999.0,97,-99.99,,,0.17,Acu-Link.com,2013-11-24 16:19:00,
2013-11-24 09:34:00,36.9,35.6,30.06,West,270,1.1,-999.0,95,-99.99,,,0.17,Acu-Link.com,2013-11-24 16:34:00,
2013-11-24 09:49:00,36.9,35.3,30.06,WNW,292,0.0,-999.0,94,-99.99,,,0.20,Acu-Link.com,2013-11-24 16:49:00,
2013-11-24 10:04:00,37.4,35.6,30.06,ENE,67,1.1,-999.0,93,-99.99,,,0.21,Acu-Link.com,2013-11-24 17:04:00,
2013-11-24 10:20:00,37.9,35.6,30.05,South,180,2.7,-999.0,91,-99.99,,,0.22,Acu-Link.com,2013-11-24 17:20:00,
2013-11-24 10:35:00,38.1,35.2,30.05,NW,315,2.2,-999.0,89,-99.99,,,0.24,Acu-Link.com,2013-11-24 17:35:00,
2013-11-24 10:50:00,38.5,35.2,30.05,West,270,0.0,-999.0,88,-99.99,,,0.26,Acu-Link.com,2013-11-24 17:50:00,
2013-11-24 11:06:00,39.2,35.7,30.04,WNW,292,1.1,-999.0,87,-99.99,,,0.26,Acu-Link.com,2013-11-24 18:06:00,
2013-11-24 11:21:00,39.7,35.6,30.04,NW,315,1.6,-999.0,85,-99.99,,,0.28,Acu-Link.com,2013-11-24 18:21:00,
2013-11-24 11:36:00,39.0,35.2,30.03,SW,225,2.2,-999.0,86,-99.99,,,0.30,Acu-Link.com,2013-11-24 18:36:00,
2013-11-24 11:51:00,39.6,35.7,30.03,West,270,2.2,-999.0,86,-99.99,,,0.31,Acu-Link.com,2013-11-24 18:51:00,
2013-11-24 12:07:00,39.9,35.8,30.02,SSW,202,0.0,-999.0,85,-99.99,,,0.32,Acu-Link.com,2013-11-24 19:07:00,
2013-11-24 12:22:00,41.2,36.4,30.01,SW,225,2.2,-999.0,83,-99.99,,,0.33,Acu-Link.com,2013-11-24 19:22:00,
2013-11-24 12:37:00,41.7,36.3,30.01,West,270,2.7,-999.0,81,-99.99,,,0.35,Acu-Link.com,2013-11-24 19:37:00,
2013-11-24 12:52:00,41.5,36.8,30.00,ESE,112,0.0,-999.0,83,-99.99,,,0.37,Acu-Link.com,2013-11-24 19:52:00,
2013-11-24 13:07:00,41.5,36.8,30.00,NW,315,3.1,-999.0,83,-99.99,,,0.38,Acu-Link.com,2013-11-24 20:07:00,
2013-11-24 13:22:00,40.6,36.5,29.99,West,270,0.0,-999.0,85,-99.99,,,0.39,Acu-Link.com,2013-11-24 20:22:00,
2013-11-24 13:37:00,40.6,36.2,29.99,West,270,1.6,-999.0,84,-99.99,,,0.43,Acu-Link.com,2013-11-24 20:37:00,
2013-11-24 13:52:00,41.0,36.5,29.98,West,270,1.6,-999.0,84,-99.99,,,0.44,Acu-Link.com,2013-11-24 20:52:00,
2013-11-24 14:07:00,41.7,36.6,29.98,NNW,337,2.2,-999.0,82,-99.99,,,0.45,Acu-Link.com,2013-11-24 21:07:00,
2013-11-24 14:23:00,41.2,36.7,29.98,WNW,292,1.6,-999.0,84,-99.99,,,0.45,Acu-Link.com,2013-11-24 21:23:00,
2013-11-24 14:38:00,40.6,36.8,29.98,NNE,22,1.1,-999.0,86,-99.99,,,0.46,Acu-Link.com,2013-11-24 21:38:00,
2013-11-24 14:53:00,40.8,37.0,29.98,West,270,1.6,-999.0,86,-99.99,,,0.46,Acu-Link.com,2013-11-24 21:53:00,
2013-11-24 15:08:00,40.5,36.0,29.98,West,270,3.8,-999.0,84,-99.99,,,0.47,Acu-Link.com,2013-11-24 22:08:00,
2013-11-24 15:23:00,40.5,36.0,29.98,WNW,292,2.2,-999.0,84,-99.99,,,0.47,Acu-Link.com,2013-11-24 22:23:00,
2013-11-24 15:39:00,40.1,35.7,29.98,NNW,337,3.1,-999.0,84,-99.99,,,0.48,Acu-Link.com,2013-11-24 22:39:00,
2013-11-24 15:54:00,39.9,35.5,29.98,NNE,22,1.6,-999.0,84,-99.99,,,0.48,Acu-Link.com,2013-11-24 22:54:00,
2013-11-24 16:09:00,39.9,35.5,29.98,NE,45,1.1,-999.0,84,-99.99,,,0.48,Acu-Link.com,2013-11-24 23:09:00,
2013-11-24 16:24:00,39.7,35.3,29.98,NW,315,1.6,-999.0,84,-99.99,,,0.48,Acu-Link.com,2013-11-24 23:24:00,
2013-11-24 16:39:00,39.6,35.1,29.98,WNW,292,2.7,-999.0,84,-99.99,,,0.48,Acu-Link.com,2013-11-24 23:39:00,
2013-11-24 16:55:00,39.2,35.4,29.98,NNW,337,3.1,-999.0,86,-99.99,,,0.48,Acu-Link.com,2013-11-24 23:55:00,
2013-11-24 17:10:00,38.8,35.0,29.97,West,270,3.8,-999.0,86,-99.99,,,0.48,Acu-Link.com,2013-11-25 00:10:00,
2013-11-24 17:25:00,38.5,34.7,29.97,NW,315,4.3,-999.0,86,-99.99,,,0.48,Acu-Link.com,2013-11-25 00:25:00,
2013-11-24 17:40:00,38.3,34.2,29.98,NE,45,4.3,-999.0,85,-99.99,,,0.48,Acu-Link.com,2013-11-25 00:40:00,
2013-11-24 17:55:00,38.3,34.2,29.98,NE,45,2.7,-999.0,85,-99.99,,,0.48,Acu-Link.com,2013-11-25 00:55:00,
2013-11-24 18:10:00,38.3,34.2,29.97,West,270,3.1,-999.0,85,-99.99,,,0.48,Acu-Link.com,2013-11-25 01:10:00,
2013-11-24 18:26:00,38.3,34.5,29.98,North,0,5.8,-999.0,86,-99.99,,,0.48,Acu-Link.com,2013-11-25 01:26:00,
2013-11-24 18:41:00,37.9,34.1,29.98,East,90,3.1,-999.0,86,-99.99,,,0.50,Acu-Link.com,2013-11-25 01:41:00,
2013-11-24 18:56:00,37.8,34.2,29.98,West,270,2.7,-999.0,87,-99.99,,,0.50,Acu-Link.com,2013-11-25 01:56:00,
2013-11-24 19:11:00,37.4,33.9,29.98,WNW,292,2.2,-999.0,87,-99.99,,,0.50,Acu-Link.com,2013-11-25 02:11:00,
2013-11-24 19:26:00,37.4,33.9,29.98,ENE,67,3.1,-999.0,87,-99.99,,,0.50,Acu-Link.com,2013-11-25 02:26:00,
2013-11-24 19:41:00,37.4,33.9,29.98,ENE,67,5.1,-999.0,87,-99.99,,,0.50,Acu-Link.com,2013-11-25 02:41:00,
2013-11-24 19:57:00,37.4,33.9,29.98,NW,315,3.1,-999.0,87,-99.99,,,0.50,Acu-Link.com,2013-11-25 02:57:00,
2013-11-24 20:12:00,37.4,33.9,29.98,NNW,337,2.7,-999.0,87,-99.99,,,0.50,Acu-Link.com,2013-11-25 03:12:00,
2013-11-24 20:27:00,37.4,33.9,29.99,NNW,337,3.8,-999.0,87,-99.99,,,0.50,Acu-Link.com,2013-11-25 03:27:00,
2013-11-24 20:42:00,37.4,33.9,29.99,South,180,2.2,-999.0,87,-99.99,,,0.50,Acu-Link.com,2013-11-25 03:42:00,
2013-11-24 20:58:00,37.4,33.9,29.99,SSW,202,2.7,-999.0,87,-99.99,,,0.50,Acu-Link.com,2013-11-25 03:58:00,
2013-11-24 21:13:00,37.4,33.9,29.99,North,0,2.2,-999.0,87,-99.99,,,0.50,Acu-Link.com,2013-11-25 04:13:00,
2013-11-24 21:28:00,37.4,34.2,30.00,NNE,22,3.1,-999.0,88,-99.99,,,0.50,Acu-Link.com,2013-11-25 04:28:00,
2013-11-24 21:43:00,37.4,34.2,30.01,North,0,4.3,-999.0,88,-99.99,,,0.50,Acu-Link.com,2013-11-25 04:43:00,
2013-11-24 21:58:00,37.4,34.2,30.01,NW,315,5.1,-999.0,88,-99.99,,,0.50,Acu-Link.com,2013-11-25 04:58:00,
2013-11-24 22:13:00,37.2,34.0,30.01,NNW,337,4.3,-999.0,88,-99.99,,,0.50,Acu-Link.com,2013-11-25 05:13:00,
2013-11-24 22:29:00,37.2,34.0,30.01,NW,315,2.7,-999.0,88,-99.99,,,0.50,Acu-Link.com,2013-11-25 05:29:00,
2013-11-24 22:44:00,37.2,34.0,30.02,NW,315,2.7,-999.0,88,-99.99,,,0.50,Acu-Link.com,2013-11-25 05:44:00,
2013-11-24 22:59:00,37.0,33.8,30.02,SW,225,3.1,-999.0,88,-99.99,,,0.50,Acu-Link.com,2013-11-25 05:59:00,
2013-11-24 23:14:00,36.9,33.6,30.01,NNW,337,1.6,-999.0,88,-99.99,,,0.50,Acu-Link.com,2013-11-25 06:14:00,
2013-11-24 23:29:00,36.7,33.5,30.02,West,270,2.7,-999.0,88,-99.99,,,0.50,Acu-Link.com,2013-11-25 06:29:00,
2013-11-24 23:45:00,36.7,33.5,30.02,North,0,2.7,-999.0,88,-99.99,,,0.50,Acu-Link.com,2013-11-25 06:45:00,